Terminal Aerodrome Forecast
Issued by NWS

Current Version | Previous Version | Graphics & Text | Print | Product List | Glossary On
Versions: 1 2 3 4 5 6 7 8 9 10 11 12 13
000
FTUS41 KPBZ 191123
TAFHLG
TAF
KHLG 191123Z 1912/2012 19003KT P6SM SKC
     FM191600 23010G20KT P6SM SKC
     FM192200 23004KT P6SM SKC=

USA.gov is the U.S. government's official web portal to all federal, state and local government web resources and services.